FW6919 Weather Reports


Display with metric or nautical units.
time (UTC)temp
F
wind
direction
speed
MPH
gust
MPH
rain 1hr
in
rain 24hr
in
rain mn
in
humidity
%
barometer
mb
20260831073749 85 228 8.0 8.0 0.00 0.00 0.00 57 1015.5
20260831073248 85 214 5.0 9.0 0.00 0.00 0.00 57 1015.5
20260831072747 85 214 4.0 9.0 0.00 0.00 0.00 56 1015.4
20260831072247 86 214 4.0 10.0 0.00 0.00 0.00 56 1015.5
20260831071747 86 242 5.0 10.0 0.00 0.00 0.00 55 1015.4
20260831071247 86 232 7.0 9.0 0.00 0.00 0.00 55 1015.4
20260831070746 86 183 9.0 11.0 0.00 0.00 0.00 55 1015.4
20260831070247 86 223 5.0 11.0 0.00 0.00 0.00 55 1015.5
20260831065745 86 177 4.0 9.0 0.00 0.00 0.00 55 1015.5
20260831065246 85 175 3.0 9.0 0.00 0.00 0.00 56 1015.4
20260831064746 85 37 3.0 9.0 0.00 0.00 0.00 57 1015.6
20260831064246 85 38 4.0 6.0 0.00 0.00 0.00 57 1015.5
20260831063745 84 32 3.0 5.0 0.00 0.00 0.00 57 1015.6
20260831063143 84 30 3.0 4.0 0.00 0.00 0.00 58 1015.7
20260831062644 84 29 2.0 4.0 0.00 0.00 0.00 58 1015.6
20260831062146 84 29 2.0 6.0 0.00 0.00 0.00 58 1015.6
20260831061644 84 26 2.0 6.0 0.00 0.00 0.00 58 1015.5
20260831061044 84 26 2.0 4.0 0.00 0.00 0.00 59 1015.5
20260831060543 84 25 2.0 4.0 0.00 0.00 0.00 59 1015.5
20260831055945 84 26 2.0 4.0 0.00 0.00 0.00 60 1015.6
20260831055542 84 26 3.0 4.0 0.00 0.00 0.00 59 1015.7
20260831055041 85 27 1.0 2.0 0.00 0.00 0.00 59 1015.6
20260831054542 85 32 1.0 3.0 0.00 0.00 0.00 58 1015.6
20260831054042 85 35 1.0 3.0 0.00 0.00 0.00 57 1015.6
20260831053542 86 0 0.0 3.0 0.00 0.00 0.00 57 1015.5
20260831053042 86 37 2.0 3.0 0.00 0.00 0.00 57 1015.5
20260831052540 86 360 3.0 4.0 0.00 0.00 0.00 56 1015.4
20260831052043 86 36 2.0 4.0 0.00 0.00 0.00 57 1015.4
20260831051540 85 37 2.0 4.0 0.00 0.00 0.00 57 1015.2
20260831051040 85 36 2.0 3.0 0.00 0.00 0.00 58 1015.3
20260831050539 86 37 2.0 3.0 0.00 0.00 0.00 58 1015.2
20260831050042 86 360 2.0 3.0 0.00 0.00 0.00 58 1015.2
20260831045539 86 360 1.0 4.0 0.00 0.00 0.00 58 1015.2
20260831045040 86 38 1.0 4.0 0.00 0.00 0.00 58 1015.2
20260831044538 85 37 1.0 4.0 0.00 0.00 0.00 58 1015.2
20260831044038 85 34 1.0 4.0 0.00 0.00 0.00 60 1015.2
20260831043538 85 31 2.0 2.0 0.00 0.00 0.00 61 1015.2
20260831043038 85 30 1.0 2.0 0.00 0.00 0.00 60 1015.3
20260831042537 85 30 1.0 2.0 0.00 0.00 0.00 60 1015.1
20260831042037 86 31 1.0 2.0 0.00 0.00 0.00 59 1015.1
20260831041538 86 32 1.0 2.0 0.00 0.00 0.00 58 1015.1
20260831041038 86 32 1.0 2.0 0.00 0.00 0.00 58 1015.1
20260831040535 86 32 1.0 2.0 0.00 0.00 0.00 58 1015.1
20260831040037 87 0 0.0 3.0 0.00 0.00 0.00 57 1015.2
20260831035535 87 0 0.0 3.0 0.00 0.00 0.00 57 1015.1
20260831035034 88 30 1.0 2.0 0.00 0.00 0.00 55 1015.1
20260831034535 88 29 1.0 3.0 0.00 0.00 0.00 55 1015.2
20260831034036 88 29 2.0 3.0 0.00 0.00 0.00 54 1015.0
20260831033445 88 28 1.0 3.0 0.00 0.00 0.00 53 1015.0
20260831033034 88 29 1.0 3.0 0.00 0.00 0.00 53 1014.9
20260831032533 89 27 1.0 2.0 0.00 0.00 0.00 52 1014.9
20260831032032 89 146 1.0 2.0 0.00 0.00 0.00 52 1014.9
20260831031531 89 150 1.0 2.0 0.00 0.00 0.00 51 1014.7
20260831031031 89 152 1.0 3.0 0.00 0.00 0.00 51 1014.8
20260831030532 90 152 1.0 5.0 0.00 0.00 0.00 50 1014.7
20260831030032 90 152 2.0 5.0 0.00 0.00 0.00 50 1014.7
20260831025532 90 152 1.0 5.0 0.00 0.00 0.00 49 1014.7
20260831025031 90 152 2.0 5.0 0.00 0.00 0.00 49 1014.5
20260831024530 90 152 2.0 3.0 0.00 0.00 0.00 49 1014.6
20260831024031 90 152 2.0 5.0 0.00 0.00 0.00 48 1014.4
20260831023531 91 151 1.0 5.0 0.00 0.00 0.00 47 1014.4
20260831023034 91 152 2.0 6.0 0.00 0.00 0.00 47 1014.3
20260831022530 91 152 2.0 6.0 0.00 0.00 0.00 46 1014.4
20260831022029 91 151 4.0 5.0 0.00 0.00 0.00 46 1014.2
20260831021529 91 173 1.0 4.0 0.00 0.00 0.00 46 1014.2
20260831021029 91 175 2.0 4.0 0.00 0.00 0.00 46 1014.1
20260831020530 91 36 3.0 4.0 0.00 0.00 0.00 46 1014.0
20260831020030 91 33 1.0 3.0 0.00 0.00 0.00 46 1014.0
20260831015528 91 34 1.0 3.0 0.00 0.00 0.00 45 1013.9
20260831015028 92 34 2.0 3.0 0.00 0.00 0.00 45 1013.7
20260831014529 92 0 0.0 3.0 0.00 0.00 0.00 44 1013.8
20260831014029 93 179 1.0 5.0 0.00 0.00 0.00 43 1013.7
20260831013528 93 179 2.0 5.0 0.00 0.00 0.00 42 1013.6
20260831013027 93 179 2.0 6.0 0.00 0.00 0.00 42 1013.6
20260831012527 94 159 1.0 6.0 0.00 0.00 0.00 42 1013.6
20260831012027 94 150 3.0 6.0 0.00 0.00 0.00 41 1013.5
20260831011527 94 159 2.0 6.0 0.00 0.00 0.00 41 1013.5
20260831011026 94 156 5.0 5.0 0.00 0.00 0.00 40 1013.4
20260831010525 95 169 4.0 6.0 0.00 0.00 0.00 40 1013.5
20260831010026 95 169 2.0 6.0 0.00 0.00 0.00 40 1013.5
20260831005525 95 160 2.0 7.0 0.00 0.00 0.00 40 1013.3
20260831005025 95 138 2.0 10.0 0.00 0.00 0.00 39 1013.4
20260831004524 96 158 5.0 12.0 0.00 0.00 0.00 39 1013.3
20260831004024 96 163 2.0 12.0 0.00 0.00 0.00 38 1013.3
20260831003524 96 176 8.0 12.0 0.00 0.00 0.00 38 1013.4
20260831003024 96 153 4.0 10.0 0.00 0.00 0.00 38 1013.3
20260831002522 97 153 3.0 10.0 0.00 0.00 0.00 38 1013.3
20260831002024 97 153 5.0 11.0 0.00 0.00 0.00 37 1013.3
20260831001524 97 213 4.0 11.0 0.00 0.00 0.00 38 1013.5
20260831001023 97 145 6.0 10.0 0.00 0.00 0.00 37 1013.4
20260831000522 97 148 9.0 11.0 0.00 0.00 0.00 37 1013.4
20260831000023 97 129 4.0 11.0 0.00 0.00 0.00 36 1013.4
20260830235524 98 159 6.0 10.0 0.00 0.00 0.00 36 1013.5
20260830235020 98 197 4.0 11.0 0.00 0.00 0.00 36 1013.5
20260830234520 98 202 6.0 11.0 0.00 0.00 0.00 36 1013.5
20260830234021 98 157 5.0 15.0 0.00 0.00 0.00 35 1013.5
20260830233520 98 157 5.0 15.0 0.00 0.00 0.00 36 1013.6
20260830233020 98 167 6.0 14.0 0.00 0.00 0.00 35 1013.6
20260830232518 98 173 7.0 12.0 0.00 0.00 0.00 35 1013.6
20260830232019 98 133 9.0 15.0 0.00 0.00 0.00 35 1013.4
20260830231520 98 162 7.0 15.0 0.00 0.00 0.00 35 1013.4
20260830231018 99 157 5.0 13.0 0.00 0.00 0.00 35 1013.4
20260830230520 99 122 3.0 16.0 0.00 0.00 0.00 35 1013.5
20260830230021 99 186 12.0 16.0 0.00 0.00 0.00 34 1013.6
20260830225517 99 150 6.0 14.0 0.00 0.00 0.00 34 1013.7
20260830225017 99 131 5.0 14.0 0.00 0.00 0.00 33 1013.7
20260830224517 99 205 7.0 14.0 0.00 0.00 0.00 34 1013.7
20260830224016 99 199 10.0 9.0 0.00 0.00 0.00 34 1013.9
20260830223516 99 237 4.0 16.0 0.00 0.00 0.00 34 1013.7
20260830223016 99 148 4.0 16.0 0.00 0.00 0.00 34 1013.7
20260830222516 99 144 9.0 16.0 0.00 0.00 0.00 35 1013.8
20260830222017 99 154 13.0 16.0 0.00 0.00 0.00 34 1013.7
20260830221516 99 221 9.0 14.0 0.00 0.00 0.00 35 1013.7
20260830221015 99 151 9.0 14.0 0.00 0.00 0.00 34 1013.7
20260830220514 99 194 5.0 17.0 0.00 0.00 0.00 35 1013.7
20260830220016 99 174 7.0 17.0 0.00 0.00 0.00 36 1013.7
20260830215515 99 193 7.0 15.0 0.00 0.00 0.00 35 1013.8
20260830215012 99 196 6.0 16.0 0.00 0.00 0.00 34 1013.8
20260830214513 99 204 7.0 16.0 0.00 0.00 0.00 35 1013.9
20260830214014 99 217 7.0 17.0 0.00 0.00 0.00 34 1013.9
20260830213514 99 206 8.0 17.0 0.00 0.00 0.00 34 1013.9
20260830213011 99 168 7.0 16.0 0.00 0.00 0.00 34 1013.8
20260830212514 99 189 5.0 17.0 0.00 0.00 0.00 35 1013.9
20260830212012 99 137 4.0 17.0 0.00 0.00 0.00 35 1014.0
20260830211513 99 188 6.0 14.0 0.00 0.00 0.00 35 1014.0
20260830211014 99 123 5.0 14.0 0.00 0.00 0.00 36 1014.2
20260830210515 98 225 6.0 21.0 0.00 0.00 0.00 37 1014.2
20260830210015 99 133 7.0 21.0 0.00 0.00 0.00 36 1014.3
20260830205512 99 143 9.0 16.0 0.00 0.00 0.00 37 1014.3
20260830205015 99 224 10.0 13.0 0.00 0.00 0.00 36 1014.4
20260830204511 99 140 5.0 16.0 0.00 0.00 0.00 36 1014.5
20260830204012 99 174 6.0 16.0 0.00 0.00 0.00 35 1014.6
20260830203511 99 243 12.0 15.0 0.00 0.00 0.00 37 1014.6
20260830203013 99 144 3.0 15.0 0.00 0.00 0.00 36 1014.7
20260830202514 99 146 5.0 12.0 0.00 0.00 0.00 38 1014.7
20260830202015 99 173 3.0 22.0 0.00 0.00 0.00 37 1014.7
20260830201512 98 177 6.0 22.0 0.00 0.00 0.00 37 1014.8
20260830201013 99 178 5.0 14.0 0.00 0.00 0.00 37 1014.9
20260830200512 99 212 5.0 14.0 0.00 0.00 0.00 38 1015.0
20260830200015 99 186 6.0 13.0 0.00 0.00 0.00 38 1015.0
20260830195512 99 184 3.0 15.0 0.00 0.00 0.00 39 1015.0
20260830195014 98 242 3.0 15.0 0.00 0.00 0.00 37 1015.1
20260830194513 98 204 10.0 16.0 0.00 0.00 0.00 38 1015.1
20260830194015 98 234 11.0 16.0 0.00 0.00 0.00 38 1015.2
20260830193514 98 161 8.0 15.0 0.00 0.00 0.00 38 1015.2
20260830193014 98 139 9.0 14.0 0.00 0.00 0.00 38 1015.2
20260830192515 98 214 8.0 14.0 0.00 0.00 0.00 38 1015.4
20260830192013 97 203 8.0 14.0 0.00 0.00 0.00 39 1015.5
20260830191513 97 159 7.0 14.0 0.00 0.00 0.00 39 1015.5
20260830191014 98 175 8.0 14.0 0.00 0.00 0.00 39 1015.6
20260830190513 97 224 4.0 14.0 0.00 0.00 0.00 40 1015.7
20260830190015 97 164 11.0 15.0 0.00 0.00 0.00 41 1015.7
20260830185515 97 177 6.0 15.0 0.00 0.00 0.00 39 1015.8
20260830185012 97 224 6.0 17.0 0.00 0.00 0.00 39 1015.9
20260830184511 97 142 6.0 17.0 0.00 0.00 0.00 40 1016.1
20260830184015 97 190 7.0 11.0 0.00 0.00 0.00 40 1016.1
20260830183513 97 190 3.0 17.0 0.00 0.00 0.00 40 1016.1
20260830183011 97 149 8.0 17.0 0.00 0.00 0.00 41 1016.2
20260830182513 96 207 16.0 16.0 0.00 0.00 0.00 41 1016.2
20260830182013 96 200 11.0 16.0 0.00 0.00 0.00 41 1016.4
20260830181514 97 145 8.0 16.0 0.00 0.00 0.00 41 1016.4
20260830181010 97 182 8.0 16.0 0.00 0.00 0.00 42 1016.5
20260830180513 97 211 11.0 16.0 0.00 0.00 0.00 43 1016.6
20260830180011 96 167 6.0 16.0 0.00 0.00 0.00 42 1016.6
20260830175513 96 178 7.0 15.0 0.00 0.00 0.00 44 1016.6
20260830175012 96 178 4.0 15.0 0.00 0.00 0.00 45 1016.8
20260830174514 96 159 7.0 14.0 0.00 0.00 0.00 45 1016.9
20260830174012 95 122 7.0 18.0 0.00 0.00 0.00 45 1016.8
20260830173514 95 146 8.0 18.0 0.00 0.00 0.00 45 1016.9
20260830173010 96 197 7.0 17.0 0.00 0.00 0.00 45 1017.1
20260830172515 95 227 5.0 15.0 0.00 0.00 0.00 46 1017.0
20260830172044 95 214 12.0 15.0 0.00 0.00 0.00 46 1017.1
20260830171541 95 242 5.0 14.0 0.00 0.00 0.00 46 1017.1
20260830171042 95 241 8.0 14.0 0.00 0.00 0.00 47 1017.2
20260830170540 95 223 4.0 14.0 0.00 0.00 0.00 47 1017.2
20260830170042 94 208 8.0 14.0 0.00 0.00 0.00 48 1017.3
20260830165538 94 219 4.0 13.0 0.00 0.00 0.00 48 1017.4
20260830165041 94 185 8.0 17.0 0.00 0.00 0.00 49 1017.5
20260830164540 94 140 5.0 17.0 0.00 0.00 0.00 49 1017.4
20260830164041 94 223 13.0 14.0 0.00 0.00 0.00 51 1017.5
20260830163538 93 219 8.0 14.0 0.00 0.00 0.00 50 1017.5
20260830163039 93 220 9.0 12.0 0.00 0.00 0.00 50 1017.6
20260830162538 93 234 10.0 10.0 0.00 0.00 0.00 52 1017.7
20260830162038 93 213 9.0 15.0 0.00 0.00 0.00 52 1017.6
20260830161536 93 220 3.0 15.0 0.00 0.00 0.00 52 1017.7
20260830161036 92 201 6.0 15.0 0.00 0.00 0.00 53 1017.7
20260830160536 92 232 8.0 15.0 0.00 0.00 0.00 53 1017.7
20260830160037 92 236 10.0 16.0 0.00 0.00 0.00 53 1017.7
20260830155539 92 233 6.0 16.0 0.00 0.00 0.00 55 1017.7
20260830155036 91 212 2.0 14.0 0.00 0.00 0.00 56 1017.7
20260830154535 91 240 11.0 14.0 0.00 0.00 0.00 57 1017.7
20260830154035 91 230 6.0 14.0 0.00 0.00 0.00 57 1017.8
20260830153534 90 209 6.0 14.0 0.00 0.00 0.00 57 1017.6
20260830153034 90 217 3.0 12.0 0.00 0.00 0.00 58 1017.6
20260830152533 90 182 7.0 13.0 0.00 0.00 0.00 58 1017.6
20260830152033 90 215 4.0 14.0 0.00 0.00 0.00 58 1017.6
20260830151533 89 225 5.0 14.0 0.00 0.00 0.00 58 1017.5
20260830151032 89 227 7.0 16.0 0.00 0.00 0.00 59 1017.6
20260830150533 89 211 9.0 16.0 0.00 0.00 0.00 59 1017.6
20260830150032 89 232 7.0 14.0 0.00 0.00 0.00 59 1017.5
20260830145534 89 205 8.0 13.0 0.00 0.00 0.00 59 1017.5
20260830145032 89 205 6.0 10.0 0.00 0.00 0.00 59 1017.7
20260830144530 88 220 6.0 10.0 0.00 0.00 0.00 60 1017.7
20260830144032 88 209 6.0 12.0 0.00 0.00 0.00 60 1017.7
20260830143531 87 238 10.0 12.0 0.00 0.00 0.00 60 1017.7
20260830143030 87 209 4.0 10.0 0.00 0.00 0.00 61 1017.7
20260830142529 87 225 3.0 10.0 0.00 0.00 0.00 61 1017.6
20260830142029 87 195 5.0 10.0 0.00 0.00 0.00 62 1017.6
20260830141529 86 246 5.0 11.0 0.00 0.00 0.00 63 1017.7
20260830141029 86 238 6.0 11.0 0.00 0.00 0.00 63 1017.7
20260830140528 85 193 5.0 12.0 0.00 0.00 0.00 64 1017.6
20260830140028 85 237 6.0 12.0 0.00 0.00 0.00 65 1017.7
20260830135527 85 186 9.0 10.0 0.00 0.00 0.00 65 1017.6
20260830135026 85 235 6.0 9.0 0.00 0.00 0.00 66 1017.5
20260830134527 84 206 6.0 11.0 0.00 0.00 0.00 67 1017.5
20260830134025 84 224 4.0 11.0 0.00 0.00 0.00 67 1017.4
20260830133525 84 203 7.0 10.0 0.00 0.00 0.00 68 1017.5
20260830133027 84 218 4.0 9.0 0.00 0.00 0.00 69 1017.4
20260830132525 83 163 4.0 11.0 0.00 0.00 0.00 70 1017.4
20260830132024 83 79 4.0 11.0 0.00 0.00 0.00 70 1017.4
20260830131524 83 95 7.0 10.0 0.00 0.00 0.00 71 1017.4
20260830131023 82 360 6.0 9.0 0.00 0.00 0.00 72 1017.3
20260830130523 82 360 3.0 9.0 0.00 0.00 0.00 72 1017.3
20260830130024 82 61 6.0 5.0 0.00 0.00 0.00 73 1017.2
20260830125523 81 55 2.0 5.0 0.00 0.00 0.00 74 1017.1
20260830125023 81 53 3.0 5.0 0.00 0.00 0.00 74 1017.0
20260830124522 81 45 3.0 3.0 0.00 0.00 0.00 74 1017.0
20260830124025 80 193 1.0 3.0 0.00 0.00 0.00 75 1016.9
20260830123524 80 194 1.0 5.0 0.00 0.00 0.00 75 1016.9
20260830123024 80 194 2.0 5.0 0.00 0.00 0.00 74 1016.9
20260830122521 80 193 1.0 3.0 0.00 0.00 0.00 74 1016.7
20260830122023 80 193 2.0 4.0 0.00 0.00 0.00 74 1016.7
20260830121520 80 192 2.0 4.0 0.00 0.00 0.00 74 1016.7
20260830121019 80 192 3.0 5.0 0.00 0.00 0.00 74 1016.7
20260830120519 80 192 2.0 5.0 0.00 0.00 0.00 74 1016.6
20260830120019 80 192 1.0 4.0 0.00 0.00 0.00 74 1016.6
20260830115518 80 192 1.0 4.0 0.00 0.00 0.00 74 1016.6
20260830115018 80 192 2.0 3.0 0.00 0.00 0.00 74 1016.5
20260830114518 80 0 0.0 3.0 0.00 0.00 0.00 73 1016.5
20260830114017 81 192 1.0 3.0 0.00 0.00 0.00 72 1016.4
20260830113518 81 192 2.0 3.0 0.00 0.00 0.00 71 1016.4
20260830113019 82 192 1.0 3.0 0.00 0.00 0.00 70 1016.3
20260830112517 82 192 1.0 7.0 0.00 0.00 0.00 70 1016.3
20260830112017 83 193 2.0 8.0 0.00 0.00 0.00 69 1016.2
20260830111517 83 193 5.0 9.0 0.00 0.00 0.00 68 1016.1
20260830111016 83 219 5.0 10.0 0.00 0.00 0.00 68 1016.1
20260830110516 83 180 4.0 10.0 0.00 0.00 0.00 68 1016.0
20260830110016 83 226 3.0 9.0 0.00 0.00 0.00 68 1015.9
20260830105516 83 231 3.0 11.0 0.00 0.00 0.00 67 1016.0
20260830105014 84 248 4.0 11.0 0.00 0.00 0.00 67 1015.9
20260830104514 84 229 6.0 10.0 0.00 0.00 0.00 67 1015.8
20260830104013 84 241 6.0 10.0 0.00 0.00 0.00 67 1015.7
20260830103513 84 228 4.0 8.0 0.00 0.00 0.00 67 1015.7
20260830103013 84 242 4.0 8.0 0.00 0.00 0.00 67 1015.7
20260830102513 84 210 6.0 9.0 0.00 0.00 0.00 66 1015.7
20260830102013 84 218 6.0 9.0 0.00 0.00 0.00 66 1015.7
20260830101512 84 246 3.0 10.0 0.00 0.00 0.00 66 1015.7
20260830101012 84 183 3.0 10.0 0.00 0.00 0.00 66 1015.6
20260830100513 84 178 3.0 10.0 0.00 0.00 0.00 67 1015.7
20260830100014 84 248 8.0 10.0 0.00 0.00 0.00 67 1015.6
20260830095512 83 213 7.0 9.0 0.00 0.00 0.00 67 1015.6
20260830095016 83 207 4.0 7.0 0.00 0.00 0.00 67 1015.7
20260830094513 83 212 5.0 6.0 0.00 0.00 0.00 67 1015.6
20260830094011 83 214 2.0 7.0 0.00 0.00 0.00 67 1015.6
20260830093510 83 215 2.0 7.0 0.00 0.00 0.00 67 1015.7
20260830093013 82 214 3.0 7.0 0.00 0.00 0.00 67 1015.6
20260830092512 82 212 2.0 5.0 0.00 0.00 0.00 67 1015.7
20260830092011 82 209 1.0 4.0 0.00 0.00 0.00 67 1015.6
20260830091513 82 209 3.0 4.0 0.00 0.00 0.00 67 1015.7
20260830091013 82 209 1.0 4.0 0.00 0.00 0.00 67 1015.6
20260830090513 82 209 3.0 4.0 0.00 0.00 0.00 67 1015.6
20260830090013 83 209 2.0 4.0 0.00 0.00 0.00 65 1015.6
20260830085512 83 209 2.0 4.0 0.00 0.00 0.00 65 1015.6
20260830085012 83 209 2.0 4.0 0.00 0.00 0.00 64 1015.7
20260830084515 83 209 2.0 5.0 0.00 0.00 0.00 64 1015.7
20260830084011 83 209 2.0 5.0 0.00 0.00 0.00 63 1015.6
20260830083450 83 210 3.0 4.0 0.00 0.00 0.00 62 1015.6
20260830082950 83 205 2.0 5.0 0.00 0.00 0.00 63 1015.7
20260830082449 84 205 3.0 5.0 0.00 0.00 0.00 62 1015.7
20260830081948 84 205 2.0 5.0 0.00 0.00 0.00 62 1015.6
20260830081450 84 202 1.0 4.0 0.00 0.00 0.00 62 1015.6
20260830080950 84 201 3.0 5.0 0.00 0.00 0.00 62 1015.7
20260830080447 83 200 3.0 5.0 0.00 0.00 0.00 62 1015.7
20260830075947 83 199 3.0 4.0 0.00 0.00 0.00 62 1015.6
20260830075446 83 198 3.0 4.0 0.00 0.00 0.00 62 1015.6
20260830074947 83 192 4.0 4.0 0.00 0.00 0.00 62 1015.6
20260830074446 84 192 2.0 4.0 0.00 0.00 0.00 62 1015.6